Regional Weather Roundup
Issued by NWS

Home | Current Version | Previous Version | Graphics & Text | Print | Product List | Glossary On
Versions: 1 2 3 4 5 6 7 8 9 10 11 12 13 14 15 16 17 18 19 20 21 22 23 24 25 26 27 28 29 30 31 32 33 34 35 36 37 38 39 40 41 42 43 44 45 46 47 48 49 50
000
ASUS43 KLSX 231259
RWRMO

WEATHER SUMMARY FOR MISSOURI
NATIONAL WEATHER SERVICE SPRINGFIELD MO
800 AM CDT SAT MAY 23 2015

NOTE: "FAIR" INDICATES FEW OR NO CLOUDS BELOW 12,000 FEET WITH NO
       SIGNIFICANT WEATHER AND/OR OBSTRUCTIONS TO VISIBILITY.
       CURRENT SKY AND/OR WEATHER CONDITIONS ARE NOT AVAILABLE FOR
       CHILLICOTHE AND FARMINGTON.

MOZ001>031-035>038-043-044-053-054-231400-
...NORTHERN AND WESTERN MISSOURI...

CITY           SKY/WX    TMP DP  RH WIND       PRES   REMARKS
KANSAS CTY INT CLOUDY    57  55  93 SE7       30.23S
KANSAS C DTWN  CLOUDY    60  53  77 E5        30.22S
LEE`S SUMMIT   CLOUDY    59  51  75 SE7       30.23F
ST JOSEPH      CLOUDY    58  56  93 NE3       30.23R
KIRKSVILLE     CLOUDY    63  56  78 S7        30.29R

$$
MOZ066>068-077>081-088>096-101>105-231400-
...SOUTHWEST MISSOURI...

CITY           SKY/WX    TMP DP  RH WIND       PRES   REMARKS
SPRINGFIELD    LGT RAIN  59  51  75 SE12      30.24S
JOPLIN         LGT RAIN  57  55  93 E6        30.23S FOG

$$
MOZ032>034-039>042-045>050-055>058-069>072-231400-
...CENTRAL MISSOURI...

CITY           SKY/WX    TMP DP  RH WIND       PRES   REMARKS
COLUMBIA       CLOUDY    62  53  72 SE8       30.29R
JEFFERSON CITY CLOUDY    63  53  70 E8        30.29R
ROLLA          CLOUDY    61  50  67 SE9       30.28R
SEDALIA        CLOUDY    62  51  67 SE7       30.27R
OSAGE BEACH    CLOUDY    61  50  67 E5        30.27S

$$
MOZ051-052-059>065-231400-
...EAST CENTRAL MISSOURI...

CITY           SKY/WX    TMP DP  RH WIND       PRES   REMARKS
ST LOUIS INTL  PTSUNNY   67  55  65 VRB5      30.32S
SPIRIT OF STL  CLOUDY    63  57  81 CALM      30.30S
ST CHARLES     CLOUDY    65  58  78 E3        30.31R

$$
MOZ072>076-082>087-097>100-106>115-231400-
...SOUTH CENTRAL AND SOUTHEAST MISSOURI...

CITY           SKY/WX    TMP DP  RH WIND       PRES   REMARKS
CAPE GIRARDEAU PTSUNNY   64  56  75 E7        30.31F
FARMINGTON     MOSUNNY   63  52  67 S5        30.35S
POPLAR BLUFF   CLOUDY    63  55  75 E5        30.29S
WEST PLAINS    CLOUDY    60  49  66 E5        30.30R

$$


USA.gov is the U.S. government's official web portal to all federal, state and local government web resources and services.